Погода в Пьенце

Италия     43°04′39″N   11°40′37″E
темп.,
°C
ветер,
м/с
пор.,
м/с
влажн.,
%
обл.,
%
осадки,
мм/ч
давл.,
гПа
погр.,
м
16 апреля, пт
пт1623:00+4вюв22869 0.1 101919
02:00+3в1189100 0.1 101916
05:00+2в228699 0.0 101817
08:00+3в22775 0.0 1018104
11:00+9в355596 0.0 1017727
14:00+12всв4448100 0.0 10151544
17:00+11всв675299 0.0 10141463
20:00+5св2272100 0.0 101534
17 апреля, сб
сб1723:00+3св117599 0.0 101614
02:00+1св1275100 0.0 101619
05:00+1сз1175100 0.0 101415
08:00+5св31075100 0.0 1013504
11:00+9св6853100 0.0 10121147
14:00+10св6754100 0.0 10121369
17:00+10ссв665581 0.0 10111292
20:00+4ссв227767 0.0 101316
18 апреля, вс
вс1823:00+3всв1180100 0.0 101412
02:00+2всв1186100 0.0 101412
05:00+2с1189100 0.0 101313
08:00+4ссв1279100 0.0 1014141
11:00+9всв3363100 0.0 10141130
14:00+11св3457100 0.3 10131355
17:00+9св5666100 0.8 10131132
20:00+6св3680100 0.9 1014152
19 апреля, пн
пн1923:00+4ссз22868 0.0 101614
02:00+3ссз249095 0.0 1015101
05:00+5с368885 0.0 1015529
08:00+5с128323 0.0 1015110
11:00+10ссв346128 0.0 10141180
14:00+12ссз235366 0.1 10141589
17:00+12з445845 0.4 10121182
20:00+8з238421 1.0 101435
20 апреля, вт
вт2023:00+5юз22873 0.0 101510
02:00+4зюз11850 0.0 101610
05:00+4ююз01850 0.0 101610
08:00+7с00810 0.0 101670
11:00+12ссв116216 0.0 10151128
14:00+14юв125385 0.3 10141444
17:00+14зюз235178 0.3 10131439
20:00+8юз228496 0.5 101422